This demonstration page uses our WeatherBlox Daily Observations layout. Learn more.

Left ArrowRight Arrow

Hourly Observations for August 23, 2021

Temp ( °F °C ) Dew Point ( °F °C ) Humidity (%) Winds ( mph kmh ) Pressure ( in mb ) Visibility ( mi km ) Precip ( " mm )
12:59 am 00:59 Mostly Cloudy 71 21.7 68 20 90 90 S 6 9 29.92 1013 9 14 0.00 0.00
1:59 am 01:59 Mostly Cloudy 73 22.8 68 20 84 84 Calm 29.92 1013 10 16 0.00 0.00
2:59 am 02:59 Mostly Cloudy 72 22.2 68 20 87 87 WSW 3 6 29.90 1012 9 14 0.00 0.00
3:59 am 03:59 Mostly Cloudy 72 22.2 68 20 87 87 Calm 29.90 1012 10 16 0.00 0.00
4:59 am 04:59 Mostly Cloudy 73 22.8 67 19.4 81 81 SSW 5 7 29.89 1012 10 16 0.00 0.00
5:59 am 05:59 Mostly Cloudy 74 23.3 68 20 82 82 WSW 5 7 29.89 1012 10 16 0.00 0.00
6:59 am 06:59 Mostly Cloudy 73 22.8 69 20.6 87 87 Calm 29.90 1013 9 14 0.00 0.00
7:59 am 07:59 Mostly Cloudy 75 23.9 70 21.1 84 84 S 3 6 29.91 1013 9 14 0.00 0.00
8:59 am 08:59 Mostly Cloudy 77 25 70 21.1 79 79 Calm 29.93 1014 9 14 0.00 0.00
9:59 am 09:59 Mostly Cloudy 80 26.7 71 21.7 74 74 SSW 3 6 29.93 1014 9 14 0.00 0.00
10:59 am 10:59 Mostly Cloudy 83 28.3 72 22.2 70 70 W 6 9 29.93 1014 9 14 0.00 0.00
11:59 am 11:59 Partly Cloudy 85 29.4 71 21.7 63 63 VRB 6 9 29.92 1013 10 16 0.00 0.00
12:59 pm 12:59 Mostly Cloudy 87 30.6 73 22.8 63 63 WSW 8 13 29.91 1013 9 14 0.00 0.00
1:59 pm 13:59 Mostly Cloudy 89 31.7 72 22.2 57 57 SSW 9 15 29.90 1013 9 14 0.00 0.00
2:59 pm 14:59 Partly Cloudy 90 32.2 70 21.1 52 52 W 12 19 29.90 1012 9 14 0.00 0.00
3:59 pm 15:59 Mostly Sunny 89 31.7 72 22.2 57 57 WNW 12 19 29.89 1012 9 14 0.00 0.00
4:59 pm 16:59 Partly Cloudy 88 31.1 71 21.7 57 57 W 7 11 29.90 1012 8 13 0.00 0.00
5:59 pm 17:59 Partly Cloudy 89 31.7 71 21.7 55 55 W 10 17 29.89 1012 8 13 0.00 0.00
6:59 pm 18:59 Mostly Sunny 88 31.1 70 21.1 55 55 W 8 13 29.90 1013 8 13 0.00 0.00
7:59 pm 19:59 Mostly Clear 85 29.4 69 20.6 59 59 WSW 5 7 29.91 1013 8 13 0.00 0.00
8:59 pm 20:59 Clear 80 26.7 71 21.7 74 74 SSW 5 7 29.93 1014 8 13 0.00 0.00
9:59 pm 21:59 Clear 80 26.7 72 22.2 76 76 SSW 5 7 29.94 1014 8 13 0.00 0.00
10:59 pm 22:59 Mostly Clear 81 27.2 72 22.2 74 74 SW 5 7 29.94 1014 8 13 0.00 0.00
11:59 pm 23:59 Mostly Clear 81 27.2 72 22.2 74 74 WSW 5 7 29.95 1014 9 14 0.00 0.00

Powered by AerisWeather